Location: Kershaw
(34.5481°N, 80.5823°W)
Time: 15:42:38
(UTC+00:00)

A-11 Canister half - Visible Passes

Search period start: 26 September 2022 00:00
Search period end: 06 October 2022 00:00
Orbit: 1515 x 1684 km, 47.2° (Epoch: 25 September)

Date Brightness Start Highest point End Pass type
(mag) Time Alt. Az. Time Alt. Az. Time Alt. Az.
26 Sep 10.4 02:06:02 10° SSW 02:08:36 20° SSW 02:08:36 20° SSW visible
26 Sep 10.3 06:29:55 29° NE 06:29:55 29° NE 06:34:45 10° ENE visible
26 Sep 9.6 08:28:08 27° NW 08:33:03 48° NNE 08:41:56 10° E visible
26 Sep 9.0 10:29:11 10° WNW 10:38:23 72° SW 10:47:40 10° SE visible
27 Sep 9.9 01:43:15 10° SSW 01:48:05 30° S 01:48:05 30° S visible
27 Sep 10.6 06:08:36 22° NE 06:08:36 22° NE 06:11:45 10° ENE visible
27 Sep 9.6 08:06:50 35° NNW 08:10:04 47° NNE 08:18:53 10° E visible
27 Sep 8.9 10:06:15 10° WNW 10:15:29 77° SW 10:24:47 10° SE visible
28 Sep 9.5 01:20:30 10° SSW 01:27:34 38° SSE 01:27:34 38° SSE visible
28 Sep 10.8 03:24:20 10° WSW 03:25:51 16° WSW 03:25:51 16° WSW visible
28 Sep 11.0 05:47:24 15° NE 05:47:24 15° NE 05:48:44 10° ENE visible
28 Sep 9.6 07:45:38 43° N 07:47:04 45° NNE 07:55:50 10° E visible
28 Sep 8.9 09:43:53 12° NW 09:52:35 81° SW 10:01:54 10° SE visible
29 Sep 9.4 00:57:45 10° SSW 01:06:31 38° SE 01:07:00 38° SE visible
29 Sep 10.3 03:01:19 10° WSW 03:05:17 28° WSW 03:05:17 28° WSW visible
29 Sep 9.7 07:24:34 44° NNE 07:24:34 44° NNE 07:32:47 10° E visible
29 Sep 8.8 09:22:50 21° NW 09:29:41 85° SW 09:38:59 10° SE visible
30 Sep 9.5 00:35:02 10° SSW 00:43:38 35° SE 00:46:21 30° E visible
30 Sep 9.6 02:38:19 10° WSW 02:44:37 46° WSW 02:44:37 46° WSW visible
30 Sep11.605:05:22ENE05:05:22ENE04:42:54Wvisible
30 Sep 10.0 07:03:38 36° NE 07:03:38 36° NE 07:09:44 10° E visible
30 Sep 8.8 09:01:54 33° NW 09:06:46 89° SW 09:16:05 10° SE visible
01 Oct 9.6 00:12:22 10° S 00:20:46 33° SE 00:25:36 21° E visible
01 Oct 9.1 02:15:19 10° WSW 02:23:52 70° W 02:23:52 70° W visible
01 Oct 10.4 06:42:49 25° ENE 06:42:49 25° ENE 06:46:40 10° E visible
01 Oct 8.8 08:41:06 52° NW 08:43:51 86° NE 08:53:09 10° SE visible
01 Oct 9.8 10:40:31 10° WNW 10:47:56 28° SW 10:55:25 10° S visible
01 Oct 9.7 23:49:41 10° S 23:57:53 30° SE 00:04:43 14° ENE visible
02 Oct 8.9 01:52:19 10° SW 02:02:10 85° NW 02:02:59 77° NNE visible
02 Oct 10.8 03:59:08 10° W 04:01:14 18° WNW 04:01:14 18° WNW visible
02 Oct 10.9 06:22:07 15° ENE 06:22:07 15° ENE 06:23:37 10° E visible
02 Oct 8.8 08:20:24 79° NNW 08:20:56 82° NE 08:30:13 10° ESE visible
02 Oct 9.6 10:18:41 14° WNW 10:25:06 30° SW 10:32:49 10° S visible
02 Oct 9.9 23:27:03 10° S 23:35:01 28° SE 23:42:45 10° ENE visible
03 Oct 8.9 01:29:21 10° SW 01:39:13 89° NW 01:41:57 54° NE visible
03 Oct 10.5 03:36:02 10° W 03:40:12 26° WNW 03:40:12 26° WNW visible
03 Oct 9.1 07:59:48 62° ESE 07:59:48 62° ESE 08:07:16 10° ESE visible
03 Oct 9.5 09:58:06 23° W 10:02:15 33° SW 10:10:11 10° S visible
04 Oct 8.9 01:06:24 10° SW 01:16:17 87° SE 01:20:48 37° NE visible
04 Oct 10.1 03:12:55 10° W 03:19:02 36° NW 03:19:02 36° NW visible
04 Oct 9.8 07:39:15 38° ESE 07:39:15 38° ESE 07:44:19 10° ESE visible
04 Oct 9.4 09:37:32 33° WSW 09:39:25 35° SW 09:47:31 10° SSE visible
05 Oct 8.9 00:43:26 10° SW 00:53:21 83° SE 00:59:31 26° ENE visible
05 Oct 9.8 02:49:49 10° W 02:57:44 44° NW 02:57:44 44° NW visible
05 Oct 10.5 07:18:43 22° ESE 07:18:43 22° ESE 07:21:21 10° ESE visible
05 Oct 9.3 09:17:00 38° SW 09:17:00 38° SW 09:24:51 10° SSE visible
